Regional Weather Roundup
Issued by NWS

Home | Current Version | Previous Version | Graphics & Text | Print | Product List | Glossary On
Versions: 1 2 3 4 5 6 7 8 9 10 11 12 13 14 15 16 17 18 19 20 21 22 23 24 25 26 27 28 29 30 31 32 33 34 35 36 37 38 39 40 41 42 43 44 45 46 47 48 49 50
000
ASUS45 KCYS 052310
RWRWY

WYOMING REGIONAL WEATHER ROUNDUP
NATIONAL WEATHER SERVICE CHEYENNE WY
500 PM MDT SUN JUL 05 2015

NOTE:  "FAIR" INDICATES FEW OR NO CLOUDS BELOW 12,000 FEET
WITH NO SIGNIFICANT WEATHER AND/OR OBSTRUCTIONS TO VISIBILITY.

WYZ001-060000-
YELLOWSTONE NATIONAL PARK

CITY           SKY/WX    TMP DP  RH WIND       PRES   REMARKS
LK YELLOWSTONE   N/A     63  47  55 W8        30.24F
W YELLOWSTONE  NOT AVBL

$$
WYZ002>013-054>058-071-098>099-060000-
NORTHERN WYOMING

CITY           SKY/WX    TMP DP  RH WIND       PRES   REMARKS
JACKSON        PTSUNNY   70  54  56 SW10      30.14F
CODY           CLOUDY    55  54  94 NE12      30.14S
GREYBULL       LGT RAIN  61  57  87 NW6       30.09S
WORLAND        LGT RAIN  60  57  89 N8        30.10F FOG
SHERIDAN       LGT RAIN  57  54  89 NW7       30.13R FOG
BUFFALO        RAIN      56  55  97 NW13G23   30.15R FOG
GILLETTE       CLOUDY    60  57  89 N16G24    30.08R FOG
HULETT         LGT RAIN  61  59  94 NE9       30.09R
NEWCASTLE      MOCLDY    68  55  64 N16G28    29.98R

$$
WYZ014>020-022>026-101>103-060000-
CENTRAL WYOMING

CITY           SKY/WX    TMP DP  RH WIND       PRES   REMARKS
BIG PINEY      CLOUDY    64  48  56 CALM      30.22S
PINEDALE       FAIR      66  46  48 MISG      30.21S
DUBOIS         CLOUDY    57  50  77 W6        30.20F
LANDER         CLOUDY    61  57  87 W7        30.13S
RIVERTON       LGT RAIN  62  59  90 N12       30.12F
CASPER         LGT RAIN  61  57  87 NE10      30.12R FOG
DOUGLAS        CLOUDY    67  58  72 NW12      30.07S

$$
WYZ021-027>030-104>119-060000-
SOUTHERN WYOMING

CITY           SKY/WX    TMP DP  RH WIND       PRES   REMARKS
EVANSTON       FAIR      70  57  63 NE14      30.19F
KEMMERER       MOCLDY    68  54  60 W7        30.21F
FORT BRIDGER   PTCLDY    66  63  88 NW7       30.22F
ROCK SPRINGS   PTSUNNY   61  57  87 S3        30.20S
DIXON          LGT RAIN  67  57  68 NW14      30.19S
RAWLINS        RAIN      58  55  90 W8        30.19S FOG
SARATOGA       DRIZZLE   61  55  82 CALM      30.21S
LARAMIE        LGT RAIN  58  55  90 SE8       30.21R
CHEYENNE       PTSUNNY   64  57  78 NW18G26   30.06F
TORRINGTON       N/A     81  60  48 N14G24    29.93R
PINE BLUFFS    LGT RAIN  68  61  77 NW20      29.98F

$$


USA.gov is the U.S. government's official web portal to all federal, state and local government web resources and services.